Regional Weather Roundup
Issued by NWS

Home | Current Version | Previous Version | Text Only | Print | Product List | Glossary On
Versions: 1 2 3 4 5 6 7 8 9 10 11 12 13 14 15 16 17 18 19 20 21 22 23 24 25 26 27 28 29 30 31 32 33 34 35 36 37 38 39 40 41 42 43 44 45 46 47 48 49 50
000
ASUS43 KLMK 230010
RWRKY
NATIONAL WEATHER SERVICE LOUISVILLE KY
700 PM EST SAT NOV 22 2014

NOTE "FAIR" INDICATES FEW OR NO CLOUDS BELOW 12,000 FEET
WITH NO SIGNIFICANT WEATHER AND/OR OBSTRUCTIONS TO VISIBILITY.

KYZ001>023-026-027-061>063-070>075-230100-
WESTERN AND SOUTH CENTRAL KENTUCKY

CITY           SKY/WX    TMP DP  RH WIND       PRES   REMARKS
PADUCAH        CLOUDY    62  37  39 VRB5      30.04S
HENDERSON      PTCLDY    55  36  47 S6        30.04S
OWENSBORO      MOCLDY    55  37  50 SE8       30.07F
HOPKINSVILLE   PTCLDY    59  32  35 S5        30.08F
BOWLING GREEN  PTCLDY    57  30  35 S3        30.12S
GLASGOW        PTCLDY    55  29  37 S3        30.12F
$$

KYZ024-025-028>034-038-045-046-053-230100-
NORTH CENTRAL KENTUCKY

CITY           SKY/WX    TMP DP  RH WIND       PRES   REMARKS
LOUISVILLE/SDF MOCLDY    57  33  40 S6        30.10R
LOUISVILLE/LOU MOCLDY    56  34  43 S3        30.11R
FORT KNOX      MOCLDY    51  34  52 S8        30.10R
$$

KYZ035>037-039>044-047>052-055>060-089>105-230100-
NORTHEAST KENTUCKY

CITY           SKY/WX    TMP DP  RH WIND       PRES   REMARKS
LEXINGTON      CLEAR     49  30  48 S8        30.13S
COVINGTON      MOCLDY    54  33  45 S8        30.09S
FRANKFORT      CLEAR     52  31  44 S6        30.10F
$$

KYZ054-064>069-076>088-106>120-230100-
SOUTHEAST KENTUCKY

CITY           SKY/WX    TMP DP  RH WIND       PRES   REMARKS
JACKSON        CLOUDY    53  24  32 VRB3      30.17F
LONDON         CLEAR     51  28  41 S5        30.18S
SOMERSET       PTCLDY    52  32  46 S6        30.18S
MIDDLESBORO    CLEAR     40  32  72 CALM      30.22S
MONTICELLO     CLEAR     54  35  48 S7        30.19S
$$



USA.gov is the U.S. government's official web portal to all federal, state and local government web resources and services.